sat.trackr.live / text

‹ back to catalog

CAPELLA-20 (ACADIA-10)

NORAD 68485 · 2026-067BX

PAYLOAD ACTIVE UNKNOWN

§ Identity

Operator
Country
US
Launch date
2026-03-30
Launch site
AFWTR
Launch vehicle
Mass (kg)
RCS (m²)

External: N2YO · Heavens-Above · Gunter

§ Orbital elements

Epoch: 2026-05-25T03:55:24.436992Z

Period
96.50 min
Inclination
97.7560°
Eccentricity
0.0002895
Mean motion
14.92246360 rev/d
Perigee alt
588.9 km
Apogee alt
593.0 km
Semi-major
6,969.1 km
B*
6.5264e-4
RAAN
103.7919°
Arg perigee
58.5206°
Mean anomaly
301.6296°
Rev number
829

§ Raw data

CAPELLA-20 (ACADIA-10)1 68485U 26067BX  26145.16347728  .00006604  00000+0  65264-3 0  99992 68485  97.7560 103.7919 0002895  58.5206 301.6296 14.92246360  8290

JSON: /api/v1/satellites/68485 · /tle

For live sub-satellite position, see the globe view (requires WebGL).

§ Visibility from observer

Set your observer location to see the next 7 days of passes ≥ 10°. The values pass through the URL so the page stays shareable.

No JS? Fill the form by hand. The geolocation button needs JavaScript.